����������;��������(kVARh)
2018-06-04 00:00;20,1
2018-06-04 00:15;20,5
2018-06-04 00:30;19,05
2018-06-04 00:45;16,9
2018-06-04 01:00;14,95
2018-06-04 01:15;13,8
2018-06-04 01:30;15,45
2018-06-04 01:45;14,95
2018-06-04 02:00;13,05
2018-06-04 02:15;3,1
2018-06-04 02:30;2,05
2018-06-04 02:45;3,3
2018-06-04 03:00;3,7
2018-06-04 03:15;2,8
2018-06-04 03:30;4
2018-06-04 03:45;2,9
2018-06-04 04:00;2,45
2018-06-04 04:15;4
2018-06-04 04:30;4,15
2018-06-04 04:45;3,7
2018-06-04 05:00;5,2
2018-06-04 05:15;5,4
2018-06-04 05:30;4,8
2018-06-04 05:45;5,2
2018-06-04 06:00;5,6
2018-06-04 06:15;5,45
2018-06-04 06:30;5,35
2018-06-04 06:45;6,6
2018-06-04 07:00;4,3
2018-06-04 07:15;4,85
2018-06-04 07:30;8,4
2018-06-04 07:45;18,75
2018-06-04 08:00;21,55
2018-06-04 08:15;19,45
2018-06-04 08:30;20,3
2018-06-04 08:45;25,95
2018-06-04 09:00;29,05
2018-06-04 09:15;57,05
2018-06-04 09:30;58,1
2018-06-04 09:45;56,75
2018-06-04 10:00;51,3
2018-06-04 10:15;56,75
2018-06-04 10:30;64,45
2018-06-04 10:45;66,1
2018-06-04 11:00;55,45
2018-06-04 11:15;60,95
2018-06-04 11:30;61,9
2018-06-04 11:45;58,8
2018-06-04 12:00;61,75
2018-06-04 12:15;73,25
2018-06-04 12:30;70,5
2018-06-04 12:45;68,55
2018-06-04 13:00;76,95
2018-06-04 13:15;80,5
2018-06-04 13:30;84,8
2018-06-04 13:45;84,1
2018-06-04 14:00;86,6
2018-06-04 14:15;88,15
2018-06-04 14:30;87,5
2018-06-04 14:45;89
2018-06-04 15:00;74,45
2018-06-04 15:15;81
2018-06-04 15:30;70,9
2018-06-04 15:45;60,4
2018-06-04 16:00;63,55
2018-06-04 16:15;60,8
2018-06-04 16:30;53,8
2018-06-04 16:45;59,75
2018-06-04 17:00;54,5
2018-06-04 17:15;50,3
2018-06-04 17:30;52
2018-06-04 17:45;55,8
2018-06-04 18:00;48,4
2018-06-04 18:15;41,65
2018-06-04 18:30;39,8
2018-06-04 18:45;36,45
2018-06-04 19:00;37,2
2018-06-04 19:15;34,25
2018-06-04 19:30;30,35
2018-06-04 19:45;30,85
2018-06-04 20:00;29,6
2018-06-04 20:15;27,95
2018-06-04 20:30;30,2
2018-06-04 20:45;26,1
2018-06-04 21:00;24,45
2018-06-04 21:15;24,4
2018-06-04 21:30;26
2018-06-04 21:45;23,35
2018-06-04 22:00;22,2
2018-06-04 22:15;25,2
2018-06-04 22:30;21,7
2018-06-04 22:45;20,95
2018-06-04 23:00;23,2
2018-06-04 23:15;21,3
2018-06-04 23:30;23,2
2018-06-04 23:45;23,45
2018-06-05 00:00;25,25
2018-06-05 00:15;23
2018-06-05 00:30;19,7
2018-06-05 00:45;13,1
2018-06-05 01:00;8,4
2018-06-05 01:15;8,35
2018-06-05 01:30;7,6
2018-06-05 01:45;6,7
2018-06-05 02:00;5,25
2018-06-05 02:15;5,75
2018-06-05 02:30;5,65
2018-06-05 02:45;6
2018-06-05 03:00;6,6
2018-06-05 03:15;7,45
2018-06-05 03:30;7,3
2018-06-05 03:45;7,6
2018-06-05 04:00;6,5
2018-06-05 04:15;5,8
2018-06-05 04:30;8,65
2018-06-05 04:45;5,95
2018-06-05 05:00;4,6
2018-06-05 05:15;6,3
2018-06-05 05:30;4,8
2018-06-05 05:45;4,5
2018-06-05 06:00;7,2
2018-06-05 06:15;6,85
2018-06-05 06:30;6,55
2018-06-05 06:45;6,45
2018-06-05 07:00;5,95
2018-06-05 07:15;4,9
2018-06-05 07:30;5,1
2018-06-05 07:45;7,1
2018-06-05 08:00;6,6
2018-06-05 08:15;15,2
2018-06-05 08:30;21,6
2018-06-05 08:45;25
2018-06-05 09:00;30,1
2018-06-05 09:15;67,65
2018-06-05 09:30;70,05
2018-06-05 09:45;62,85
2018-06-05 10:00;50,2
2018-06-05 10:15;58,5
2018-06-05 10:30;60,05
2018-06-05 10:45;60,15
2018-06-05 11:00;71,25
2018-06-05 11:15;67,35
2018-06-05 11:30;63,8
2018-06-05 11:45;78,95
2018-06-05 12:00;77,6
2018-06-05 12:15;77,9
2018-06-05 12:30;75,85
2018-06-05 12:45;77,5
2018-06-05 13:00;75,85
2018-06-05 13:15;76,5
2018-06-05 13:30;76,9
2018-06-05 13:45;78,8
2018-06-05 14:00;80,2
2018-06-05 14:15;80,35
2018-06-05 14:30;87,65
2018-06-05 14:45;87,65
2018-06-05 15:00;86,35
2018-06-05 15:15;82,3
2018-06-05 15:30;81,05
2018-06-05 15:45;79,6
2018-06-05 16:00;77,9
2018-06-05 16:15;75,7
2018-06-05 16:30;72,75
2018-06-05 16:45;71,9
2018-06-05 17:00;67,8
2018-06-05 17:15;66,3
2018-06-05 17:30;65,8
2018-06-05 17:45;52,65
2018-06-05 18:00;52,2
2018-06-05 18:15;41,8
2018-06-05 18:30;40,05
2018-06-05 18:45;37,4
2018-06-05 19:00;36,1
2018-06-05 19:15;35,5
2018-06-05 19:30;31,35
2018-06-05 19:45;32,3
2018-06-05 20:00;30,1
2018-06-05 20:15;32,85
2018-06-05 20:30;35,05
2018-06-05 20:45;36,85
2018-06-05 21:00;33,6
2018-06-05 21:15;31,25
2018-06-05 21:30;31,1
2018-06-05 21:45;29,65
2018-06-05 22:00;27
2018-06-05 22:15;26,45
2018-06-05 22:30;27,45
2018-06-05 22:45;27
2018-06-05 23:00;29,75
2018-06-05 23:15;30
2018-06-05 23:30;27,45
2018-06-05 23:45;27,4
2018-06-06 00:00;23,95
2018-06-06 00:15;25,3
2018-06-06 00:30;27,6
2018-06-06 00:45;27,2
2018-06-06 01:00;18,55
2018-06-06 01:15;9,6
2018-06-06 01:30;6,65
2018-06-06 01:45;8,05
2018-06-06 02:00;8,5
2018-06-06 02:15;8,35
2018-06-06 02:30;7,75
2018-06-06 02:45;8,85
2018-06-06 03:00;8,65
2018-06-06 03:15;8,1
2018-06-06 03:30;12,8
2018-06-06 03:45;12,15
2018-06-06 04:00;12,4
2018-06-06 04:15;12,9
2018-06-06 04:30;13,15
2018-06-06 04:45;13
2018-06-06 05:00;13,05
2018-06-06 05:15;13,2
2018-06-06 05:30;14,85
2018-06-06 05:45;19,5
2018-06-06 06:00;19,2
2018-06-06 06:15;20,8
2018-06-06 06:30;19,5
2018-06-06 06:45;19,3
2018-06-06 07:00;18,1
2018-06-06 07:15;18,3
2018-06-06 07:30;17,5
2018-06-06 07:45;45,85
2018-06-06 08:00;50,75
2018-06-06 08:15;35,3
2018-06-06 08:30;35,15
2018-06-06 08:45;28,65
2018-06-06 09:00;39,55
2018-06-06 09:15;45,85
2018-06-06 09:30;50,05
2018-06-06 09:45;54,95
2018-06-06 10:00;55,7
2018-06-06 10:15;62,95
2018-06-06 10:30;64,15
2018-06-06 10:45;76,55
2018-06-06 11:00;89,25
2018-06-06 11:15;82,2
2018-06-06 11:30;90,6
2018-06-06 11:45;84,9
2018-06-06 12:00;84,95
2018-06-06 12:15;89,05
2018-06-06 12:30;81,45
2018-06-06 12:45;98,1
2018-06-06 13:00;89,75
2018-06-06 13:15;94,2
2018-06-06 13:30;90,9
2018-06-06 13:45;84,65
2018-06-06 14:00;95,6
2018-06-06 14:15;87,6
2018-06-06 14:30;89,2
2018-06-06 14:45;89,85
2018-06-06 15:00;82,7
2018-06-06 15:15;89
2018-06-06 15:30;85,1
2018-06-06 15:45;82,2
2018-06-06 16:00;85,15
2018-06-06 16:15;79,35
2018-06-06 16:30;77,2
2018-06-06 16:45;81,35
2018-06-06 17:00;75,1
2018-06-06 17:15;71,35
2018-06-06 17:30;79,3
2018-06-06 17:45;70,1
2018-06-06 18:00;66,5
2018-06-06 18:15;57,75
2018-06-06 18:30;52,9
2018-06-06 18:45;50,45
2018-06-06 19:00;46,2
2018-06-06 19:15;34,3
2018-06-06 19:30;32,2
2018-06-06 19:45;31,6
2018-06-06 20:00;31
2018-06-06 20:15;32
2018-06-06 20:30;32,75
2018-06-06 20:45;31,45
2018-06-06 21:00;28,05
2018-06-06 21:15;26,3
2018-06-06 21:30;25,95
2018-06-06 21:45;22,2
2018-06-06 22:00;21
2018-06-06 22:15;19,4
2018-06-06 22:30;16,7
2018-06-06 22:45;16,85
2018-06-06 23:00;18,05
2018-06-06 23:15;20,45
2018-06-06 23:30;18,85
2018-06-06 23:45;21
2018-06-07 00:00;21,55
2018-06-07 00:15;21,7
2018-06-07 00:30;22,9
2018-06-07 00:45;22,9
2018-06-07 01:00;23,1
2018-06-07 01:15;19,25
2018-06-07 01:30;7,8
2018-06-07 01:45;5,1
2018-06-07 02:00;2,55
2018-06-07 02:15;0,1
2018-06-07 02:30;0
2018-06-07 02:45;0,15
2018-06-07 03:00;1,55
2018-06-07 03:15;0,35
2018-06-07 03:30;0,7
2018-06-07 03:45;1,65
2018-06-07 04:00;2,35
2018-06-07 04:15;2,4
2018-06-07 04:30;1,75
2018-06-07 04:45;1,35
2018-06-07 05:00;2,85
2018-06-07 05:15;2,95
2018-06-07 05:30;3,45
2018-06-07 05:45;3,25
2018-06-07 06:00;6,95
2018-06-07 06:15;8,2
2018-06-07 06:30;8,15
2018-06-07 06:45;7,1
2018-06-07 07:00;6,45
2018-06-07 07:15;3,55
2018-06-07 07:30;4,5
2018-06-07 07:45;37,85
2018-06-07 08:00;43,65
2018-06-07 08:15;20,1
2018-06-07 08:30;32,65
2018-06-07 08:45;30,6
2018-06-07 09:00;46,45
2018-06-07 09:15;60,35
2018-06-07 09:30;60,7
2018-06-07 09:45;64,9
2018-06-07 10:00;66,55
2018-06-07 10:15;87,05
2018-06-07 10:30;86,65
2018-06-07 10:45;87,7
2018-06-07 11:00;85,8
2018-06-07 11:15;90,1
2018-06-07 11:30;87,1
2018-06-07 11:45;87,3
2018-06-07 12:00;91,3
2018-06-07 12:15;90,65
2018-06-07 12:30;90,15
2018-06-07 12:45;92,1
2018-06-07 13:00;78,6
2018-06-07 13:15;88,4
2018-06-07 13:30;78,7
2018-06-07 13:45;86,65
2018-06-07 14:00;74,55
2018-06-07 14:15;83,8
2018-06-07 14:30;74,7
2018-06-07 14:45;83,3
2018-06-07 15:00;73,05
2018-06-07 15:15;77,65
2018-06-07 15:30;71,4
2018-06-07 15:45;73,1
2018-06-07 16:00;67,35
2018-06-07 16:15;64,1
2018-06-07 16:30;67,3
2018-06-07 16:45;58,25
2018-06-07 17:00;68,1
2018-06-07 17:15;56,25
2018-06-07 17:30;64,9
2018-06-07 17:45;55,05
2018-06-07 18:00;55,9
2018-06-07 18:15;45,25
2018-06-07 18:30;42,95
2018-06-07 18:45;42,4
2018-06-07 19:00;46,35
2018-06-07 19:15;41,55
2018-06-07 19:30;40,15
2018-06-07 19:45;38,65
2018-06-07 20:00;40,3
2018-06-07 20:15;36,05
2018-06-07 20:30;33,1
2018-06-07 20:45;34,65
2018-06-07 21:00;30,1
2018-06-07 21:15;29
2018-06-07 21:30;28,65
2018-06-07 21:45;25,6
2018-06-07 22:00;23,55
2018-06-07 22:15;23,7
2018-06-07 22:30;24,6
2018-06-07 22:45;13,95
2018-06-07 23:00;13,9
2018-06-07 23:15;12,5
2018-06-07 23:30;11,65
2018-06-07 23:45;12,8
2018-06-08 00:00;7,8
2018-06-08 00:15;6,6
2018-06-08 00:30;4,5
2018-06-08 00:45;0,65
2018-06-08 01:00;1,85
2018-06-08 01:15;0,1
2018-06-08 01:30;0
2018-06-08 01:45;0
2018-06-08 02:00;0,1
2018-06-08 02:15;0
2018-06-08 02:30;0
2018-06-08 02:45;0,15
2018-06-08 03:00;0
2018-06-08 03:15;0
2018-06-08 03:30;0,05
2018-06-08 03:45;0
2018-06-08 04:00;0,05
2018-06-08 04:15;3,65
2018-06-08 04:30;5,3
2018-06-08 04:45;6,35
2018-06-08 05:00;6,8
2018-06-08 05:15;6,85
2018-06-08 05:30;7,45
2018-06-08 05:45;7,3
2018-06-08 06:00;8,35
2018-06-08 06:15;14,65
2018-06-08 06:30;12,5
2018-06-08 06:45;11,4
2018-06-08 07:00;10,6
2018-06-08 07:15;10,15
2018-06-08 07:30;10,5
2018-06-08 07:45;44,65
2018-06-08 08:00;48,55
2018-06-08 08:15;21,5
2018-06-08 08:30;37,95
2018-06-08 08:45;52,75
2018-06-08 09:00;57,4
2018-06-08 09:15;63,95
2018-06-08 09:30;52,4
2018-06-08 09:45;60,85
2018-06-08 10:00;59,3
2018-06-08 10:15;59,9
2018-06-08 10:30;68,75
2018-06-08 10:45;60,3
2018-06-08 11:00;70,8
2018-06-08 11:15;64,6
2018-06-08 11:30;73,25
2018-06-08 11:45;67,4
2018-06-08 12:00;79,45
2018-06-08 12:15;79,9
2018-06-08 12:30;72,25
2018-06-08 12:45;84,15
2018-06-08 13:00;87,5
2018-06-08 13:15;77,75
2018-06-08 13:30;86,45
2018-06-08 13:45;89,85
2018-06-08 14:00;87,75
2018-06-08 14:15;74,2
2018-06-08 14:30;89,4
2018-06-08 14:45;95,65
2018-06-08 15:00;79,75
2018-06-08 15:15;80,5
2018-06-08 15:30;76,05
2018-06-08 15:45;80,45
2018-06-08 16:00;64,75
2018-06-08 16:15;66,4
2018-06-08 16:30;61,95
2018-06-08 16:45;72,6
2018-06-08 17:00;69,8
2018-06-08 17:15;68,05
2018-06-08 17:30;67,5
2018-06-08 17:45;66,5
2018-06-08 18:00;62,7
2018-06-08 18:15;41,8
2018-06-08 18:30;39,75
2018-06-08 18:45;40,95
2018-06-08 19:00;42,3
2018-06-08 19:15;34,4
2018-06-08 19:30;37,1
2018-06-08 19:45;39,2
2018-06-08 20:00;39,75
2018-06-08 20:15;38,15
2018-06-08 20:30;36,8
2018-06-08 20:45;35,85
2018-06-08 21:00;38,2
2018-06-08 21:15;40,25
2018-06-08 21:30;39,85
2018-06-08 21:45;34,75
2018-06-08 22:00;31,5
2018-06-08 22:15;34,35
2018-06-08 22:30;29,75
2018-06-08 22:45;30,6
2018-06-08 23:00;31,65
2018-06-08 23:15;32
2018-06-08 23:30;25,35
2018-06-08 23:45;23,75
2018-06-09 00:00;24,05
2018-06-09 00:15;23,5
2018-06-09 00:30;23,2
2018-06-09 00:45;20,4
2018-06-09 01:00;16,3
2018-06-09 01:15;7,55
2018-06-09 01:30;2,05
2018-06-09 01:45;1,65
2018-06-09 02:00;1,75
2018-06-09 02:15;0,9
2018-06-09 02:30;0
2018-06-09 02:45;0,3
2018-06-09 03:00;0,1
2018-06-09 03:15;0,1
2018-06-09 03:30;0,4
2018-06-09 03:45;0
2018-06-09 04:00;0,15
2018-06-09 04:15;0,5
2018-06-09 04:30;0,55
2018-06-09 04:45;0,35
2018-06-09 05:00;0,6
2018-06-09 05:15;0,3
2018-06-09 05:30;1,55
2018-06-09 05:45;4,2
2018-06-09 06:00;5,05
2018-06-09 06:15;5,55
2018-06-09 06:30;6
2018-06-09 06:45;5,5
2018-06-09 07:00;5,7
2018-06-09 07:15;3,8
2018-06-09 07:30;2,45
2018-06-09 07:45;2,9
2018-06-09 08:00;1,6
2018-06-09 08:15;6,6
2018-06-09 08:30;8
2018-06-09 08:45;6,55
2018-06-09 09:00;8,35
2018-06-09 09:15;6,95
2018-06-09 09:30;9,95
2018-06-09 09:45;13,25
2018-06-09 10:00;15
2018-06-09 10:15;13,7
2018-06-09 10:30;15,25
2018-06-09 10:45;16,7
2018-06-09 11:00;16,65
2018-06-09 11:15;17,95
2018-06-09 11:30;17,55
2018-06-09 11:45;17,2
2018-06-09 12:00;14,05
2018-06-09 12:15;16
2018-06-09 12:30;20,05
2018-06-09 12:45;22,55
2018-06-09 13:00;21,45
2018-06-09 13:15;20,7
2018-06-09 13:30;20,75
2018-06-09 13:45;21,3
2018-06-09 14:00;21,3
2018-06-09 14:15;21,2
2018-06-09 14:30;23,5
2018-06-09 14:45;22,25
2018-06-09 15:00;22,7
2018-06-09 15:15;22,45
2018-06-09 15:30;19,25
2018-06-09 15:45;20,5
2018-06-09 16:00;21,15
2018-06-09 16:15;22,5
2018-06-09 16:30;23,15
2018-06-09 16:45;21,8
2018-06-09 17:00;26
2018-06-09 17:15;27,75
2018-06-09 17:30;25,9
2018-06-09 17:45;25
2018-06-09 18:00;22,95
2018-06-09 18:15;21
2018-06-09 18:30;19,9
2018-06-09 18:45;19
2018-06-09 19:00;20,75
2018-06-09 19:15;20,15
2018-06-09 19:30;20,8
2018-06-09 19:45;22,8
2018-06-09 20:00;22,6
2018-06-09 20:15;21,9
2018-06-09 20:30;20,35
2018-06-09 20:45;21,75
2018-06-09 21:00;22,85
2018-06-09 21:15;18,95
2018-06-09 21:30;20,1
2018-06-09 21:45;17,5
2018-06-09 22:00;16,4
2018-06-09 22:15;22,75
2018-06-09 22:30;21,3
2018-06-09 22:45;17,85
2018-06-09 23:00;19,25
2018-06-09 23:15;14,7
2018-06-09 23:30;8,45
2018-06-09 23:45;6,75
2018-06-10 00:00;7,2
2018-06-10 00:15;7,25
2018-06-10 00:30;8,45
2018-06-10 00:45;7,6
2018-06-10 01:00;6,85
2018-06-10 01:15;4,85
2018-06-10 01:30;6,55
2018-06-10 01:45;4,35
2018-06-10 02:00;4,1
2018-06-10 02:15;6,05
2018-06-10 02:30;5,75
2018-06-10 02:45;5,5
2018-06-10 03:00;6,55
2018-06-10 03:15;6,45
2018-06-10 03:30;6,15
2018-06-10 03:45;7,3
2018-06-10 04:00;5,3
2018-06-10 04:15;4,2
2018-06-10 04:30;7,2
2018-06-10 04:45;5,65
2018-06-10 05:00;5,9
2018-06-10 05:15;7,8
2018-06-10 05:30;7,35
2018-06-10 05:45;6,8
2018-06-10 06:00;9,3
2018-06-10 06:15;9,4
2018-06-10 06:30;8,55
2018-06-10 06:45;10,25
2018-06-10 07:00;10
2018-06-10 07:15;7,95
2018-06-10 07:30;8,05
2018-06-10 07:45;6,85
2018-06-10 08:00;7,65
2018-06-10 08:15;9,2
2018-06-10 08:30;6,8
2018-06-10 08:45;6,45
2018-06-10 09:00;11,8
2018-06-10 09:15;12,55
2018-06-10 09:30;11,8
2018-06-10 09:45;10,85
2018-06-10 10:00;10,75
2018-06-10 10:15;17,15
2018-06-10 10:30;16,5
2018-06-10 10:45;16,1
2018-06-10 11:00;14,85
2018-06-10 11:15;10,5
2018-06-10 11:30;10,4
2018-06-10 11:45;9,6
2018-06-10 12:00;11,55
2018-06-10 12:15;12,35
2018-06-10 12:30;11,85
2018-06-10 12:45;9,85
2018-06-10 13:00;10,7
2018-06-10 13:15;11,55
2018-06-10 13:30;11
2018-06-10 13:45;13,35
2018-06-10 14:00;13,3
2018-06-10 14:15;13,95
2018-06-10 14:30;14,55
2018-06-10 14:45;14,9
2018-06-10 15:00;14,9
2018-06-10 15:15;14,7
2018-06-10 15:30;16,3
2018-06-10 15:45;15,95
2018-06-10 16:00;15,85
2018-06-10 16:15;13,9
2018-06-10 16:30;14,45
2018-06-10 16:45;14
2018-06-10 17:00;14,05
2018-06-10 17:15;15
2018-06-10 17:30;14,9
2018-06-10 17:45;17,5
2018-06-10 18:00;17,55
2018-06-10 18:15;18,45
2018-06-10 18:30;19,75
2018-06-10 18:45;14,35
2018-06-10 19:00;13,9
2018-06-10 19:15;14,75
2018-06-10 19:30;12,85
2018-06-10 19:45;14,9
2018-06-10 20:00;13,7
2018-06-10 20:15;13,2
2018-06-10 20:30;13,8
2018-06-10 20:45;12,65
2018-06-10 21:00;12,85
2018-06-10 21:15;11,5
2018-06-10 21:30;12,05
2018-06-10 21:45;8,5
2018-06-10 22:00;7,35
2018-06-10 22:15;7,5
2018-06-10 22:30;4,7
2018-06-10 22:45;6,15
2018-06-10 23:00;7,05
2018-06-10 23:15;7,1
2018-06-10 23:30;7,4
2018-06-10 23:45;7,4

